When you browse on this site, cookies collect data to enhance your experience and personalize the content and advertising you see.
Visit our Privacy Policy to learn more. By continuing to use the site, you agree to this use of cookies and data.
  • In Deutschland
  • Länderverzeichnis
  • Für 7 Tage
  • Wassertemperatur
  • Wetterkarte
  • Widgets
  • user-avatar
    Anmelden

    Stündliche Wetter Eisenstadt

    Heute, 9 Dezember, Montag

    Zeit Temperatur Niederschläge Wind Luftdruck Luftfeuchtigkeit
    00:00 +2°C° 0 mm 1 m/S 716 mmHg 74%
    01:00 +2°C° 0 mm 1 m/S 716 mmHg 69%
    02:00 +2°C° 0 mm 1 m/S 716 mmHg 69%
    03:00 +3°C° 0 mm 1 m/S 715 mmHg 70%
    04:00 +3°C° 0 mm 1 m/S 715 mmHg 70%
    05:00 +3°C° 0 mm 1 m/S 715 mmHg 70%
    06:00 +4°C° 0 mm 1 m/S 715 mmHg 69%
    07:00 +4°C° 0 mm 1 m/S 716 mmHg 69%
    08:00 +5°C° 0.1 mm 1 m/S 716 mmHg 71%
    09:00 +5°C° 0.1 mm 1 m/S 716 mmHg 72%
    10:00 +5°C° 0.1 mm 1 m/S 716 mmHg 73%
    11:00 +6°C° 1 mm 1 m/S 716 mmHg 79%
    12:00 +6°C° 1 mm 1 m/S 716 mmHg 85%
    13:00 +6°C° 1 mm 1 m/S 716 mmHg 90%
    14:00 +5°C° 0.9 mm 1 m/S 715 mmHg 91%
    15:00 +5°C° 0.9 mm 1 m/S 715 mmHg 91%
    16:00 +5°C° 0.9 mm 1 m/S 715 mmHg 92%
    17:00 +5°C° 0.1 mm 1 m/S 715 mmHg 90%
    18:00 +5°C° 0.1 mm 1 m/S 715 mmHg 89%
    19:00 +5°C° 0.1 mm 1 m/S 715 mmHg 88%
    20:00 +5°C° 0 mm 1 m/S 716 mmHg 87%
    21:00 +5°C° 0 mm 1 m/S 716 mmHg 87%
    22:00 +5°C° 0 mm 1 m/S 716 mmHg 86%
    23:00 +5°C° 0 mm 1 m/S 717 mmHg 87%

    Morgen, 10 Dezember, Dienstag

    Zeit Temperatur Niederschläge Wind Luftdruck Luftfeuchtigkeit
    00:00 +4°C° 0 mm 1 m/S 717 mmHg 87%
    01:00 +4°C° 0 mm 1 m/S 717 mmHg 87%
    02:00 +3°C° 0 mm 2 m/S 718 mmHg 88%
    03:00 +3°C° 0 mm 2 m/S 718 mmHg 88%
    04:00 +2°C° 0 mm 3 m/S 718 mmHg 88%
    05:00 +2°C° 0 mm 3 m/S 719 mmHg 89%
    06:00 +1°C° 0 mm 4 m/S 720 mmHg 89%
    07:00 +1°C° 0 mm 4 m/S 721 mmHg 89%
    08:00 +1°C° 0 mm 5 m/S 722 mmHg 83%
    09:00 +1°C° 0 mm 6 m/S 723 mmHg 76%
    10:00 0°C° 0 mm 7 m/S 723 mmHg 70%
    11:00 0°C° 0 mm 7 m/S 724 mmHg 67%
    12:00 +1°C° 0 mm 8 m/S 724 mmHg 64%
    13:00 +1°C° 0 mm 8 m/S 725 mmHg 61%
    14:00 0°C° 0 mm 7 m/S 725 mmHg 63%
    15:00 -1°C° 0 mm 6 m/S 725 mmHg 66%
    16:00 -1°C° 0 mm 5 m/S 725 mmHg 69%
    17:00 -1°C° 0 mm 5 m/S 726 mmHg 70%
    18:00 -2°C° 0 mm 5 m/S 726 mmHg 72%
    19:00 -2°C° 0 mm 5 m/S 727 mmHg 73%
    20:00 -3°C° 0 mm 4 m/S 727 mmHg 75%
    21:00 -3°C° 0 mm 4 m/S 727 mmHg 76%
    22:00 -2°C° 0 mm 3 m/S 727 mmHg 78%
    23:00 -4°C° 0 mm 3 m/S 727 mmHg 79%

    übermorgen, 11 Dezember, Mittwoch

    Zeit Temperatur Niederschläge Wind Luftdruck Luftfeuchtigkeit
    00:00 -3°C° 0 mm 2 m/S 727 mmHg 80%
    01:00 -3°C° 0 mm 2 m/S 726 mmHg 81%
    02:00 -3°C° 0 mm 2 m/S 726 mmHg 79%
    03:00 -3°C° 0 mm 2 m/S 725 mmHg 78%
    04:00 -1°C° 0 mm 1 m/S 725 mmHg 77%
    05:00 -2°C° 0 mm 1 m/S 725 mmHg 74%
    06:00 -2°C° 0 mm 1 m/S 724 mmHg 72%
    07:00 -2°C° 0 mm 1 m/S 724 mmHg 70%
    08:00 -1°C° 0 mm 1 m/S 724 mmHg 65%
    09:00 0°C° 0 mm 1 m/S 724 mmHg 61%
    10:00 +1°C° 0 mm 1 m/S 723 mmHg 57%
    11:00 +2°C° 0 mm 1 m/S 723 mmHg 55%
    12:00 +1°C° 0 mm 2 m/S 722 mmHg 54%
    13:00 +2°C° 0 mm 2 m/S 721 mmHg 52%
    14:00 +1°C° 0 mm 2 m/S 720 mmHg 58%
    15:00 -1°C° 0 mm 2 m/S 720 mmHg 65%
    16:00 -2°C° 0 mm 2 m/S 719 mmHg 72%
    17:00 -3°C° 0 mm 2 m/S 719 mmHg 73%
    18:00 -4°C° 0 mm 3 m/S 719 mmHg 75%
    19:00 -4°C° 0 mm 3 m/S 718 mmHg 76%
    20:00 -4°C° 0 mm 2 m/S 718 mmHg 75%
    21:00 -4°C° 0 mm 2 m/S 718 mmHg 74%
    22:00 -4°C° 0 mm 2 m/S 718 mmHg 74%
    23:00 -4°C° 0 mm 2 m/S 718 mmHg 72%

    12 Dezember, Donnerstag

    Zeit Temperatur Niederschläge Wind Luftdruck Luftfeuchtigkeit
    00:00 -4°C° 0 mm 2 m/S 718 mmHg 71%
    01:00 -2°C° 0 mm 1 m/S 717 mmHg 70%
    02:00 -2°C° 0 mm 1 m/S 717 mmHg 70%
    03:00 -2°C° 0 mm 1 m/S 717 mmHg 70%
    04:00 -2°C° 0 mm 1 m/S 716 mmHg 69%
    05:00 -2°C° 0 mm 1 m/S 717 mmHg 68%
    06:00 -1°C° 0 mm 1 m/S 717 mmHg 67%
    07:00 -1°C° 0 mm 1 m/S 717 mmHg 65%
    08:00 0°C° 0 mm 1 m/S 717 mmHg 63%
    09:00 0°C° 0 mm 0 m/S 717 mmHg 61%
    10:00 +1°C° 0 mm 0 m/S 718 mmHg 58%
    11:00 +1°C° 0.1 mm 0 m/S 717 mmHg 62%
    12:00 +1°C° 0.1 mm 0 m/S 717 mmHg 65%
    13:00 +3°C° 0.1 mm 1 m/S 717 mmHg 69%
    14:00 +2°C° 0 mm 1 m/S 717 mmHg 73%
    15:00 +1°C° 0 mm 1 m/S 717 mmHg 76%
    16:00 +1°C° 0 mm 1 m/S 717 mmHg 80%
    17:00 0°C° 0 mm 1 m/S 717 mmHg 80%
    18:00 0°C° 0 mm 1 m/S 717 mmHg 80%
    19:00 0°C° 0 mm 1 m/S 717 mmHg 80%
    20:00 -1°C° 0 mm 1 m/S 717 mmHg 81%
    21:00 -3°C° 0 mm 2 m/S 716 mmHg 82%
    22:00 -3°C° 0 mm 2 m/S 716 mmHg 84%
    23:00 -4°C° 0 mm 3 m/S 715 mmHg 87%

    13 Dezember, Freitag

    Zeit Temperatur Niederschläge Wind Luftdruck Luftfeuchtigkeit
    00:00 -4°C° 0 mm 3 m/S 714 mmHg 90%
    01:00 -4°C° 0 mm 4 m/S 713 mmHg 93%
    02:00 -4°C° 0 mm 5 m/S 712 mmHg 88%
    03:00 -4°C° 0 mm 6 m/S 711 mmHg 83%
    04:00 -4°C° 0 mm 7 m/S 710 mmHg 79%
    05:00 -4°C° 0 mm 7 m/S 708 mmHg 79%
    06:00 -5°C° 0 mm 8 m/S 707 mmHg 80%
    07:00 -5°C° 0 mm 8 m/S 706 mmHg 80%
    08:00 -4°C° 0 mm 8 m/S 705 mmHg 76%
    09:00 -4°C° 0 mm 8 m/S 705 mmHg 73%
    10:00 -2°C° 0 mm 8 m/S 704 mmHg 69%
    11:00 -1°C° 0 mm 8 m/S 703 mmHg 66%
    12:00 0°C° 0 mm 9 m/S 702 mmHg 64%
    13:00 +1°C° 0 mm 9 m/S 702 mmHg 61%
    14:00 +1°C° 0.1 mm 6 m/S 702 mmHg 66%
    15:00 0°C° 0.1 mm 4 m/S 702 mmHg 72%
    16:00 +3°C° 0.1 mm 1 m/S 702 mmHg 77%
    17:00 +2°C° 0.3 mm 1 m/S 703 mmHg 83%
    18:00 +2°C° 0.3 mm 1 m/S 703 mmHg 88%
    19:00 +2°C° 0.3 mm 1 m/S 704 mmHg 93%
    20:00 +2°C° 0.1 mm 1 m/S 704 mmHg 93%
    21:00 +2°C° 0.1 mm 1 m/S 705 mmHg 93%
    22:00 +2°C° 0.1 mm 1 m/S 705 mmHg 93%
    23:00 +2°C° 0 mm 1 m/S 705 mmHg 92%

    14 Dezember, Samstag

    Zeit Temperatur Niederschläge Wind Luftdruck Luftfeuchtigkeit
    00:00 +2°C° 0 mm 1 m/S 706 mmHg 91%
    01:00 +1°C° 0 mm 2 m/S 706 mmHg 90%
    02:00 +1°C° 0 mm 2 m/S 706 mmHg 89%
    03:00 +2°C° 0 mm 1 m/S 707 mmHg 87%
    04:00 +2°C° 0 mm 1 m/S 707 mmHg 86%
    05:00 +2°C° 0 mm 1 m/S 708 mmHg 86%
    06:00 +1°C° 0 mm 1 m/S 708 mmHg 85%
    07:00 +1°C° 0 mm 1 m/S 708 mmHg 85%
    08:00 +2°C° 0 mm 1 m/S 709 mmHg 81%
    09:00 +3°C° 0 mm 1 m/S 709 mmHg 78%
    10:00 +3°C° 0 mm 2 m/S 710 mmHg 75%
    11:00 +3°C° 0 mm 2 m/S 709 mmHg 73%
    12:00 +4°C° 0 mm 2 m/S 709 mmHg 72%
    13:00 +4°C° 0 mm 2 m/S 709 mmHg 70%
    14:00 +4°C° 0 mm 2 m/S 709 mmHg 75%
    15:00 +3°C° 0 mm 2 m/S 710 mmHg 79%
    16:00 +2°C° 0 mm 2 m/S 710 mmHg 84%
    17:00 +2°C° 0 mm 2 m/S 711 mmHg 83%
    18:00 +1°C° 0 mm 2 m/S 712 mmHg 82%
    19:00 +1°C° 0 mm 2 m/S 712 mmHg 82%
    20:00 +1°C° 0 mm 2 m/S 713 mmHg 82%
    21:00 +1°C° 0 mm 2 m/S 714 mmHg 82%
    22:00 +1°C° 0 mm 2 m/S 715 mmHg 83%
    23:00 +2°C° 0.1 mm 1 m/S 715 mmHg 82%
    Mehr zeigen